Weather History for Olivia, MN

Change the Weather History Date:

Thursday, April 17, 2014

  Actual Average (KRWF) Record (KRWF)
Temperature  
Mean Temperature 26 °F -  
Max Temperature 35 °F 60 °F 88 °F (1985)
Min Temperature 17 °F 37 °F 16 °F (1953)
Degree Days  
Heating Degree Days 39    
Moisture  
Dew Point 24 °F    
Average Humidity 81    
Maximum Humidity 93    
Minimum Humidity 70    
Precipitation  
Precipitation 0.01 in - - ()
Sea Level Pressure  
Sea Level Pressure 30.24 in    
Wind  
Wind Speed 9 mph (NW)    
Max Wind Speed 14 mph    
Max Gust Speed -    
Visibility 10 miles    
Events      
Averages and records for this station are not official NWS values.
T = Trace of Precipitation, MM = Missing Value Source: NWS Daily Summary

Daily Weather History Graph

Daily Weather History Graph

Search for Another Location

Airport:

Trip Planner

Search our weather history database for the weather conditions in past years. The results will help you decide how hot, cold, wet, or windy it might be!

Date:

Astronomy

Apr. 17, 2014 Rise Set
Actual Time 6:32 AM CDT 8:07 PM CDT
Civil Twilight 6:01 AM CDT 8:38 PM CDT
Nautical Twilight 5:24 AM CDT 9:16 PM CDT
Astronomical Twilight 4:44 AM CDT 9:56 PM CDT
Moon 10:59 PM CDT (4/17) 8:00 AM CDT (4/17)
Length of Visible Light 14h 37m
Length of Day
13h 35m
Waning Gibbous, 93% of the Moon is Illuminated
Apr 17
Waning Gibbous
Apr 22
Last Quarter
Apr 29
New
May 6
First Quarter
May 14
Full

Hourly Weather History & Observations

Time (CDT) Temp. Windchill Dew Point Humidity Pressure Visibility Wind Dir Wind Speed Gust Speed Precip Events Conditions
12:13 AM 30.2 °F 19.8 °F 26.6 °F 86% 30.06 in 10.0 mi North 13.8 mph - N/A   Overcast
12:33 AM 30.2 °F 19.8 °F 26.6 °F 86% 30.07 in 10.0 mi North 13.8 mph - N/A   Overcast
12:53 AM 30.2 °F 19.8 °F 26.6 °F 86% 30.08 in 10.0 mi North 13.8 mph - N/A   Overcast
1:13 AM 30.2 °F 20.2 °F 26.6 °F 86% 30.09 in 10.0 mi North 12.7 mph - N/A   Overcast
1:33 AM 30.2 °F 21.9 °F 26.6 °F 86% 30.09 in 10.0 mi North 9.2 mph - N/A   Overcast
1:53 AM 30.2 °F 20.8 °F 26.6 °F 86% 30.11 in 10.0 mi NNW 11.5 mph - N/A   Overcast
2:13 AM 30.2 °F 21.9 °F 26.6 °F 86% 30.11 in 10.0 mi North 9.2 mph - N/A   Mostly Cloudy
2:33 AM 28.4 °F 19.1 °F 23.0 °F 80% 30.11 in 10.0 mi NNW 10.4 mph - N/A   Clear
2:53 AM 26.6 °F 17.5 °F 21.2 °F 80% 30.12 in 10.0 mi NNW 9.2 mph - N/A   Clear
3:13 AM 26.6 °F 18.2 °F 21.2 °F 80% 30.12 in 10.0 mi NW 8.1 mph - N/A   Clear
3:33 AM 21.2 °F 10.9 °F 17.6 °F 86% 30.13 in 10.0 mi NW 9.2 mph - N/A   Clear
3:53 AM 21.2 °F 11.7 °F 19.4 °F 93% 30.13 in 10.0 mi NW 8.1 mph - N/A   Clear
4:13 AM 23.0 °F 12.4 °F 19.4 °F 86% 30.14 in 10.0 mi NNW 10.4 mph - N/A   Clear
4:33 AM 21.2 °F 10.9 °F 17.6 °F 86% 30.15 in 10.0 mi NW 9.2 mph - N/A   Clear
4:53 AM 21.2 °F 11.7 °F 17.6 °F 86% 30.17 in 10.0 mi NW 8.1 mph - N/A   Clear
5:13 AM 19.4 °F 9.5 °F 14.0 °F 80% 30.18 in 10.0 mi NW 8.1 mph - N/A   Clear
5:33 AM 21.2 °F 10.9 °F 17.6 °F 86% 30.18 in 10.0 mi NNW 9.2 mph - N/A   Clear
5:53 AM 21.2 °F 10.9 °F 17.6 °F 86% 30.18 in 10.0 mi NNW 9.2 mph - N/A   Clear
6:13 AM 21.2 °F 10.9 °F 17.6 °F 86% 30.18 in 10.0 mi NNW 9.2 mph - N/A   Clear
6:33 AM 21.2 °F 11.7 °F 17.6 °F 86% 30.19 in 10.0 mi NNW 8.1 mph - N/A   Clear
6:53 AM 19.4 °F 11.5 °F 14.0 °F 80% 30.20 in 10.0 mi NNW 5.8 mph - N/A   Clear
7:13 AM 21.2 °F 12.6 °F 17.6 °F 86% 30.21 in 10.0 mi NW 6.9 mph - N/A   Clear
7:33 AM 17.6 °F 7.3 °F 14.0 °F 86% 30.23 in 10.0 mi NW 8.1 mph - N/A   Clear
7:53 AM 17.6 °F 9.3 °F 14.0 °F 86% 30.24 in 10.0 mi NW 5.8 mph - N/A   Clear
8:13 AM 21.2 °F 13.6 °F 17.6 °F 86% 30.24 in 10.0 mi NNW 5.8 mph - N/A   Clear
8:33 AM 21.2 °F 12.6 °F 17.6 °F 86% 30.25 in 10.0 mi NW 6.9 mph - N/A   Clear
8:53 AM 23.0 °F 13.9 °F 17.6 °F 80% 30.26 in 10.0 mi NW 8.1 mph - N/A   Scattered Clouds
9:13 AM 23.0 °F 14.7 °F 19.4 °F 86% 30.27 in 10.0 mi NW 6.9 mph - N/A   Clear
9:33 AM 26.6 °F 19.1 °F 21.2 °F 80% 30.28 in 10.0 mi WNW 6.9 mph - N/A   Clear
9:53 AM 26.6 °F 17.5 °F 21.2 °F 80% 30.28 in 10.0 mi NW 9.2 mph - N/A   Clear
10:13 AM 28.4 °F 19.7 °F 23.0 °F 80% 30.29 in 10.0 mi WNW 9.2 mph - N/A   Clear
10:33 AM 28.4 °F 19.1 °F 23.0 °F 80% 30.29 in 10.0 mi NW 10.4 mph - N/A   Clear
11:13 AM 30.2 °F 22.6 °F 23.0 °F 75% 30.30 in 10.0 mi NW 8.1 mph - N/A   Clear
11:33 AM 30.2 °F 24.3 °F 23.0 °F 75% 30.31 in 10.0 mi WNW 5.8 mph - N/A   Clear
12:13 PM 32.0 °F 25.6 °F 24.8 °F 75% 30.31 in 10.0 mi WNW 6.9 mph - N/A   Clear
12:32 PM 32.0 °F 25.6 °F 26.6 °F 80% 30.30 in 10.0 mi WNW 6.9 mph - N/A   Clear
12:53 PM 32.0 °F 24.8 °F 24.8 °F 75% 30.30 in 10.0 mi WNW 8.1 mph - N/A   Clear
1:13 PM 33.8 °F 27.0 °F 26.6 °F 75% 30.30 in 10.0 mi WNW 8.1 mph - N/A   Clear
1:33 PM 33.8 °F 27.0 °F 28.4 °F 81% 30.30 in 10.0 mi WNW 8.1 mph - N/A   Clear
1:53 PM 33.8 °F 27.0 °F 28.4 °F 81% 30.30 in 10.0 mi WNW 8.1 mph - N/A   Clear
2:13 PM 33.8 °F 26.4 °F 26.6 °F 75% 30.31 in 10.0 mi WNW 9.2 mph - N/A   Clear
2:33 PM 33.8 °F 26.4 °F 28.4 °F 81% 30.31 in 10.0 mi WNW 9.2 mph - N/A   Clear
2:53 PM 33.8 °F 26.4 °F 26.6 °F 75% 30.31 in 10.0 mi WNW 9.2 mph - N/A   Clear
3:13 PM 35.6 °F 29.2 °F 28.4 °F 75% 30.30 in 10.0 mi WNW 8.1 mph - N/A   Clear
3:33 PM 35.6 °F 28.6 °F 28.4 °F 75% 30.31 in 10.0 mi WNW 9.2 mph - N/A   Clear
3:53 PM 35.6 °F 28.6 °F 28.4 °F 75% 30.31 in 10.0 mi WNW 9.2 mph - N/A   Clear
4:13 PM 35.6 °F 28.6 °F 26.6 °F 70% 30.30 in 10.0 mi WNW 9.2 mph - N/A   Clear
4:33 PM 35.6 °F 28.6 °F 28.4 °F 75% 30.30 in 10.0 mi West 9.2 mph - N/A   Clear
4:53 PM 35.6 °F 29.9 °F 28.4 °F 75% 30.30 in 10.0 mi West 6.9 mph - N/A   Clear
5:13 PM 35.6 °F 29.9 °F 28.4 °F 75% 30.30 in 10.0 mi West 6.9 mph - N/A   Clear
5:33 PM 35.6 °F 29.9 °F 28.4 °F 75% 30.30 in 10.0 mi West 6.9 mph - N/A   Clear
5:53 PM 35.6 °F 29.9 °F 28.4 °F 75% 30.29 in 10.0 mi West 6.9 mph - N/A   Clear
6:13 PM 35.6 °F 30.7 °F 28.4 °F 75% 30.29 in 10.0 mi West 5.8 mph - N/A   Clear
6:33 PM 33.8 °F 29.6 °F 28.4 °F 81% 30.29 in 10.0 mi WSW 4.6 mph - N/A   Clear
6:53 PM 33.8 °F 29.6 °F 28.4 °F 81% 30.29 in 10.0 mi WSW 4.6 mph - N/A   Clear
7:12 PM 33.8 °F 28.6 °F 26.6 °F 75% 30.29 in 10.0 mi WSW 5.8 mph - N/A   Clear
7:33 PM 32.0 °F 26.4 °F 26.6 °F 80% 30.30 in 10.0 mi WSW 5.8 mph - N/A   Clear
7:53 PM 32.0 °F 27.5 °F 26.6 °F 80% 30.29 in 10.0 mi WSW 4.6 mph - N/A   Clear
8:13 PM 32.0 °F - 26.6 °F 80% 30.29 in 10.0 mi Calm Calm - N/A   Clear
8:33 PM 32.0 °F - 26.6 °F 80% 30.29 in 10.0 mi Calm Calm - 0.01 in   Clear
8:53 PM 32.0 °F - 26.6 °F 80% 30.30 in 10.0 mi Calm Calm - 0.01 in   Clear
9:13 PM 30.2 °F - 26.6 °F 86% 30.30 in 10.0 mi Calm Calm - N/A   Clear
9:33 PM 30.2 °F - 24.8 °F 80% 30.30 in 10.0 mi Calm Calm - N/A   Clear
9:52 PM 30.2 °F 26.7 °F 26.6 °F 86% 30.31 in 10.0 mi SW 3.5 mph - N/A   Clear
10:13 PM 30.2 °F 26.7 °F 26.6 °F 86% 30.31 in 10.0 mi SSW 3.5 mph - N/A   Clear
10:33 PM 30.2 °F - 26.6 °F 86% 30.30 in 10.0 mi Calm Calm - N/A   Clear
10:53 PM 28.4 °F - 23.0 °F 80% 30.30 in 10.0 mi Calm Calm - N/A   Clear
11:13 PM 28.4 °F - 23.0 °F 80% 30.30 in 10.0 mi Calm Calm - N/A   Clear
11:33 PM 28.4 °F - 24.8 °F 86% 30.31 in 10.0 mi Calm Calm - N/A   Clear
11:53 PM 26.6 °F 22.6 °F 23.0 °F 86% 30.31 in 10.0 mi SW 3.5 mph - N/A   Clear